Location: Haliburton Scout Reserve
(45.0900°N, 78.3200°W)
Time: 04:40:31
(UTC-04:00)

METEOR M2 - Visible Passes

Search period start: 23 September 2023 00:00
Search period end: 03 October 2023 00:00
Orbit: 817 x 827 km, 98.4° (Epoch: 22 September)

Date Brightness Start Highest point End Pass type
(mag) Time Alt. Az. Time Alt. Az. Time Alt. Az.
24 Sep ? 19:54:33 10° WSW 19:57:19 14° W 20:00:06 10° WNW visible
25 Sep ? 06:27:07 10° NE 06:31:45 29° E 06:36:22 10° SSE visible
25 Sep ? 19:33:02 10° SW 19:37:02 21° W 19:41:03 10° NW visible
26 Sep ? 06:07:39 10° NE 06:11:31 20° E 06:15:21 10° SE visible
27 Sep ? 05:48:46 10° ENE 05:51:13 13° E 05:53:37 10° ESE visible
29 Sep ? 19:54:34 10° WSW 19:57:17 14° W 20:00:00 10° WNW visible
30 Sep ? 06:27:02 10° NE 06:31:42 29° E 06:36:21 10° SSE visible
30 Sep ? 19:33:00 10° SW 19:36:59 21° W 19:40:58 10° NW visible
01 Oct ? 06:07:35 10° NE 06:11:27 20° E 06:15:20 10° SE visible
02 Oct ? 05:48:39 10° ENE 05:51:10 13° E 05:53:39 10° ESE visible
